Current Version              Previous Version:    01  02  03  04  05  06  07  08  09  10  11  12  13  14  15  16  17  18  19  20  21  22  23  24  25  26  27  28  29  30  
   31  32  33  34  35  36  37  38  39  40  41  42  43  44  45  46  47  48  49  50  51  52  53  54  55  56  57  58  59  60  

[Printable]
018
ASUS44 KFWD 201615
RWRTX
NORTH TEXAS HOURLY WEATHER ROUNDUP
NATIONAL WEATHER SERVICE FORT WORTH TX
1100 AM CDT MON OCT 20 2014

NOTE: "FAIR" INDICATES FEW OR NO CLOUDS BELOW 12,000 FEET WITH NO
SIGNIFICANT WEATHER AND/OR OBSTRUCTIONS TO VISIBILITY.

TXZ118-119-201700-
DALLAS/FORT WORTH METROPLEX

CITY           SKY/WX    TMP DP  RH WIND       PRES   REMARKS
DFW AIRPORT    MOSUNNY   71  58  63 S8        30.10F
DALLAS LOVE    MOSUNNY   71  57  61 CALM      30.11F
FTW MEACHAM    SUNNY     72  60  66 S9        30.10F
DAL-EXECUTIVE  SUNNY     71  58  63 VRB5      30.11S
FTW-ALLIANCE   MOSUNNY   73  60  63 SW7       30.10F
FTW-NAS-JRB    MOSUNNY   74  59  59 S6        30.14F
FTW-SPINKS     SUNNY     73  61  64 SW7       30.12F
ARLINGTON      SUNNY     72  58  61 VRB5      30.11S
GRAND PRAIRIE  SUNNY     72  59  64 MISG      30.12F
ADDISON        MOSUNNY   72  55  56 S6        30.11F
MESQUITE       SUNNY     68  55  64 S6        30.12S
LANCASTER      SUNNY     69  56  63 S7        30.12F
$$

TXZ091>094-102>105-117-120-121-131>134-201700-
NORTH CENTRAL TEXAS

CITY           SKY/WX    TMP DP  RH WIND       PRES   REMARKS
SHRMAN/DENISON SUNNY     72  60  67 SW8       30.11F
GAINESVILLE    SUNNY     69  59  70 MISG      30.12S
BOWIE          SUNNY     72  62  70 S9        30.11R
BRIDGEPORT     SUNNY     73  63  70 W6        30.12S
DECATUR        SUNNY     70  59  69 SW8       30.11S
DENTON         SUNNY     71  59  65 SW9       30.10S
MCKINNEY       MOSUNNY   70  57  63 SW6       30.11S
GREENVILLE     SUNNY     70  54  56 S6        30.12S
ROCKWALL       SUNNY     69  57  66 S6        30.11S
TERRELL        SUNNY     70  57  63 VRB7      30.12S
WAXAHACHIE     SUNNY     71  60  69 S3        30.12F
CLEBURNE       SUNNY     70  64  83 SW6       30.13S
GRANBURY       SUNNY     74  63  68 SW6       30.12S
$$

TXZ083>090-098>101-113>116-127>130-139>142-154-155-201700-
WESTERN NORTH TEXAS

CITY           SKY/WX    TMP DP  RH WIND       PRES   REMARKS
WICHITA FALLS  SUNNY     73  61  65 SW15      30.08S
WF-KICKAPOO    SUNNY     73  60  64 SW10      30.09F
VERNON         SUNNY     73  61  64 SW10      30.09S
ABILENE        SUNNY     71  59  65 SW12      30.13S
ABILENE-DYESS  SUNNY     74  60  62 S9        30.11F
BRECKENRIDGE   CLOUDY    74  61  63 SW7       30.11S
GRAHAM         SUNNY     73  63  69 SW8       30.10S
MINERAL WELLS  SUNNY     69  60  73 S6        30.10S
STEPHENVILLE   SUNNY     68  63  84 SW6       30.15S
COMANCHE       PTSUNNY   71  65  81 S7        30.12F
BROWNWOOD      CLOUDY    70  63  78 S8        30.14S
COLEMAN        MOSUNNY   70  62  76 S9        30.14S
BRADY          SUNNY     70  61  73 S3        30.13S
$$

TXZ143>147-156>162-174-175-201700-
CENTRAL TEXAS

CITY           SKY/WX    TMP DP  RH WIND       PRES   REMARKS
WACO           SUNNY     71  62  73 VRB3      30.11S
WACO-MCGREGOR  SUNNY     72  61  68 S3        30.12S
HILLSBORO      SUNNY     72  60  66 SW5       30.12R
CORSICANA      SUNNY     69  57  65 SE5       30.12F
MEXIA          MOSUNNY   68  59  72 CALM      30.10S
HEARNE         SUNNY     69  59  69 CALM      30.11S
CAMERON        SUNNY     70  60  72 CALM      30.11S
TEMPLE         SUNNY     70  61  73 CALM      30.10S
KILLEEN        PTSUNNY   72  64  78 VRB3      30.10F FOG
KILLEEN-SKYLRK SUNNY     72  61  68 SE3       30.10S
FORT HOOD      SUNNY     73  64  73 S5        30.11S
GATESVILLE     SUNNY     72  63  73 CALM      30.13S
HAMILTON       MOSUNNY   72  64  76 SW7       30.13F
LAMPASAS       MOSUNNY   65  64  97 CALM      30.11S
$$

TXZ095>097-106>112-122>126-135>138-148>153-164>167-201700-
EAST TEXAS

CITY           SKY/WX    TMP DP  RH WIND       PRES   REMARKS
PARIS          SUNNY     66  52  59 W5        30.13R
SULPHUR SPRNGS   N/A     69  54  58 SW6       30.13F
MOUNT PLEASANT SUNNY     66  56  69 S3        30.14S
MINEOLA        SUNNY     70  55  60 S3        30.13S
TYLER          SUNNY     70  55  59 CALM      30.12S
LONGVIEW       SUNNY     68  53  58 S3        30.11F
MARSHALL       SUNNY     68  55  62 CALM      30.14S
ATHENS         SUNNY     68  54  60 S5        30.11S
PALESTINE      PTSUNNY   67  56  67 CALM      30.12F
JACKSONVILLE   SUNNY     69  56  63 CALM      30.14S
HENDERSON      SUNNY     67  53  61 CALM      30.13S
NACOGDOCHES    SUNNY     68  52  56 CALM      30.12S
LUFKIN         SUNNY     72  55  55 VRB3      30.11S
$$

SUPPLEMENTAL OBSERVATIONS (CENTRAL)

CITY           SKY/WX    TMP DP  RH WIND       PRES   REMARKS
LAKE TEXOMA      N/A     72  57  60 SW5         N/A
CADDO GRASSLND   N/A     70  55  60 S6          N/A
PAT MAYSE LAKE   N/A     68  52  56 CALM        N/A
LAKE LIMESTONE   N/A     73  59  60 NW1         N/A
MCGREGOR         N/A     75  63  64 SW2         N/A
$$

SUPPLEMENTAL OBSERVATIONS (WEST)

CITY           SKY/WX    TMP DP  RH WIND       PRES   REMARKS
MILLERS CREEK    N/A     72  64  78 SW10        N/A
LBJ GRASSLAND    N/A    N/A N/A N/A S6          N/A
COMANCHE         N/A     72  70  94 SW8         N/A
HAMBY            N/A     72  59  64 SW14        N/A
IVIE RESERVOIR   N/A     72  61  68 S6          N/A
COLORADO BEND    N/A     73  63  68 S5          N/A
$$

SUPPLEMENTAL OBSERVATIONS (EAST)

CITY           SKY/WX    TMP DP  RH WIND       PRES   REMARKS
TEXARKANA        N/A     70  52  52 SW3         N/A
LINDEN           N/A     70  54  56 SW2         N/A
CADDO LAKE       N/A     72  55  56 W3          N/A
LUFKIN           N/A     72  54  53 MISG        N/A
$$

SUPPLEMENTAL OBSERVATIONS ARE A COLLECTION OF AUTOMATED INSTRUMENTS
THAT ARE MAINTAINED BY A VARIETY OF FEDERAL AND STATE AGENCIES.
CERTAIN ELEMENTS...SUCH AS HUMIDITY VALUES AND SUSTAINED WIND
SPEEDS...MAY BE APPROXIMATED.